GW4079 Weather Reports


Display with metric or nautical units.
time (UTC)temp
F
wind
direction
speed
MPH
gust
MPH
rain 1hr
in
rain 24hr
in
rain mn
in
humidity
%
barometer
mb
20260509191549 63 292 2.0 7.0 0.00 0.00 0.00 36 1018.7
20260509190106 63 319 3.0 7.0 0.00 0.00 0.00 36 1018.7
20260509184606 62 105 0.0 7.0 0.00 0.00 0.00 37 1018.5
20260509183053 63 199 6.0 10.0 0.00 0.00 0.00 37 1018.7
20260509181547 62 263 0.0 4.0 0.00 0.00 0.00 38 1018.5
20260509180054 62 154 0.0 4.0 0.00 0.00 0.00 37 1018.6
20260509174555 62 79 2.0 6.0 0.00 0.00 0.00 38 1018.8
20260509173107 61 289 5.0 8.0 0.00 0.00 0.00 39 1018.5
20260509171618 60 284 4.0 10.0 0.00 0.00 0.00 39 1018.5
20260509170326 61 269 7.0 9.0 0.00 0.00 0.00 39 1018.4
20260509164600 61 280 6.0 9.0 0.00 0.00 0.00 40 1018.1
20260509163124 62 314 3.0 7.0 0.00 0.00 0.00 41 1018.3
20260509161552 60 284 1.0 6.0 0.00 0.00 0.00 41 1018.0
20260509160051 59 277 2.0 6.0 0.00 0.00 0.00 46 1018.1
20260509154558 58 305 3.0 7.0 0.00 0.00 0.00 46 1017.9
20260509153052 57 232 2.0 5.0 0.00 0.00 0.00 48 1017.8
20260509151558 56 227 0.0 4.0 0.00 0.00 0.00 49 1017.8
20260509150127 55 227 3.0 5.0 0.00 0.00 0.00 50 1017.7
20260509144710 55 110 0.0 3.0 0.00 0.00 0.00 52 1017.4
20260509143110 54 61 0.0 6.0 0.00 0.00 0.00 54 1017.4
20260509141835 52 59 3.0 6.0 0.00 0.00 0.00 55 1017.3
20260509140107 52 360 0.0 3.0 0.00 0.00 0.00 55 1017.2
20260509134823 51 360 0.0 3.0 0.00 0.00 0.00 54 1016.8
20260509133037 50 360 0.0 3.0 0.00 0.00 0.00 56 1017.0
20260509131541 50 61 1.0 3.0 0.00 0.00 0.00 56 1016.8
20260509124613 51 40 5.0 11.0 0.00 0.00 0.00 54 1016.1
20260509123103 51 76 7.0 11.0 0.00 0.00 0.00 55 1016.0
20260509121559 51 55 5.0 13.0 0.00 0.00 0.00 55 1015.7
20260509120107 51 46 3.0 6.0 0.00 0.00 0.00 55 1015.3
20260509114543 51 58 7.0 10.0 0.00 0.00 0.00 54 1015.5
20260509113053 51 61 5.0 9.0 0.00 0.00 0.00 56 1015.4
20260509111823 51 47 1.0 3.0 0.00 0.00 0.00 57 1015.1
20260509110043 52 47 3.0 4.0 0.00 0.00 0.00 55 1015.2
20260509104548 53 163 0.0 5.0 0.00 0.00 0.00 53 1014.9
20260509103051 54 32 0.0 4.0 0.00 0.00 0.00 53 1014.7
20260509101555 54 150 4.0 8.0 0.00 0.00 0.00 53 1014.4
20260509100056 53 121 5.0 9.0 0.00 0.00 0.00 54 1014.2
20260509094819 53 25 0.0 3.0 0.00 0.00 0.00 54 1014.3
20260509093058 55 360 3.0 10.0 0.00 0.00 0.00 51 1014.0
20260509091559 56 95 9.0 12.0 0.00 0.00 0.00 51 1013.5
20260509090109 54 333 4.0 6.0 0.00 0.00 0.00 52 1013.5
20260509084610 55 262 0.0 8.0 0.00 0.00 0.00 51 1013.5
20260509083059 54 92 4.0 10.0 0.00 0.00 0.00 51 1013.1
20260509081556 53 333 6.0 9.0 0.00 0.00 0.00 52 1013.3
20260509080057 52 61 6.0 9.0 0.00 0.00 0.00 52 1013.1
20260509074550 52 57 4.0 6.0 0.00 0.00 0.00 52 1013.1
20260509073049 53 62 5.0 9.0 0.00 0.00 0.00 50 1013.0
20260509071556 54 76 6.0 9.0 0.00 0.00 0.00 48 1012.9
20260509070051 54 74 5.0 7.0 0.00 0.00 0.00 48 1012.7
20260509064544 54 46 0.0 3.0 0.00 0.00 0.00 48 1012.7
20260509063044 54 12 2.0 4.0 0.00 0.00 0.00 46 1012.7
20260509061615 56 22 3.0 6.0 0.00 0.00 0.00 44 1012.4
20260509060430 57 352 4.0 9.0 0.00 0.00 0.00 42 1012.5
20260509054615 58 5 7.0 11.0 0.00 0.00 0.00 40 1012.4
20260509053110 59 13 8.0 15.0 0.00 0.00 0.00 36 1012.2
20260509051556 59 338 12.0 17.0 0.00 0.00 0.00 33 1011.9
20260509050055 57 325 9.0 12.0 0.00 0.00 0.00 34 1011.5
20260509044547 57 9 5.0 8.0 0.00 0.00 0.00 34 1011.2
20260509043046 56 360 4.0 7.0 0.00 0.00 0.00 35 1011.1
20260509041547 58 34 3.0 4.0 0.00 0.00 0.00 33 1010.9
20260509040047 59 34 3.0 5.0 0.00 0.00 0.00 32 1010.9
20260509034559 59 34 5.0 9.0 0.00 0.00 0.00 31 1010.6
20260509033047 58 35 4.0 9.0 0.00 0.00 0.00 32 1010.6
20260509031603 61 38 3.0 6.0 0.00 0.00 0.00 29 1010.0
20260509024601 64 39 6.0 10.0 0.00 0.00 0.00 27 1009.6
20260509023109 66 34 6.0 12.0 0.00 0.00 0.00 25 1009.4
20260509021604 67 32 10.0 15.0 0.00 0.00 0.00 24 1009.4
20260509020056 68 22 9.0 15.0 0.00 0.00 0.00 24 1009.3
20260509014545 68 28 11.0 16.0 0.00 0.00 0.00 24 1009.3
20260509013121 69 30 10.0 18.0 0.00 0.00 0.00 25 1009.2
20260509011609 70 46 16.0 23.0 0.00 0.00 0.00 24 1009.2
20260509010110 71 17 14.0 19.0 0.00 0.00 0.00 23 1009.2
20260509004605 71 347 17.0 21.0 0.00 0.00 0.00 21 1009.1
20260509003102 72 342 18.0 23.0 0.00 0.00 0.00 19 1009.0
20260509001608 72 350 19.0 26.0 0.00 0.00 0.00 19 1008.9
20260509000109 73 15 18.0 23.0 0.00 0.00 0.00 18 1009.0
20260508234612 74 336 20.0 28.0 0.00 0.00 0.00 17 1008.8
20260508233053 74 352 19.0 26.0 0.00 0.00 0.00 17 1008.8
20260508231604 75 350 21.0 30.0 0.00 0.00 0.00 16 1008.7
20260508230059 75 344 19.0 31.0 0.00 0.00 0.00 17 1008.5
20260508224559 76 331 20.0 29.0 0.00 0.00 0.00 17 1008.8
20260508223048 76 339 22.0 29.0 0.00 0.00 0.00 17 1008.7
20260508221554 76 347 21.0 34.0 0.00 0.00 0.00 17 1008.4
20260508220104 76 326 20.0 33.0 0.00 0.00 0.00 15 1008.6
20260508214550 76 323 23.0 29.0 0.00 0.00 0.00 17 1008.6
20260508213101 76 5 20.0 26.0 0.00 0.00 0.00 16 1008.7
20260508211550 76 348 21.0 29.0 0.00 0.00 0.00 16 1008.9
20260508210053 76 316 17.0 25.0 0.00 0.00 0.00 17 1008.6
20260508204557 74 314 15.0 21.0 0.00 0.00 0.00 18 1008.9
20260508203116 75 315 15.0 29.0 0.00 0.00 0.00 20 1009.3
20260508201609 74 317 14.0 24.0 0.00 0.00 0.00 23 1009.5
20260508200059 73 352 10.0 20.0 0.00 0.00 0.00 22 1009.6
20260508194601 73 321 10.0 20.0 0.00 0.00 0.00 22 1009.9
20260508193132 71 302 14.0 31.0 0.00 0.00 0.00 28 1010.1